Weather in Seltso

Russia / Bryansk Oblast     53°20′48″N   34°04′55″E
temp.,
°C
wind,
m/s
gust,
m/s
humid.,
%
clouds,
%
prec.,
mm/h
press.,
hPa
HPBL,
m
13 april, tue
tue1300:00+10ese41187100 0.0 1021193
03:00+10se41282100 0.0 1021210
06:00+9se4886100 0.0 1022120
09:00+13se486969 0.0 1022299
12:00+17sse575566 0.0 10211387
15:00+18s685798 0.4 10201401
18:00+15s237095 0.6 101957
21:00+13ssw2275100 0.8 101911
14 april, wed
wed1400:00+12sse2281100 0.0 101918
03:00+11sse3983100 0.0 1018309
06:00+10sse3590100 0.0 1018127
09:00+12sse2482100 0.0 1018298
12:00+15sse4766100 0.3 10171210
15:00+15sse466799 1.6 1016957
18:00+15s3667100 0.8 1015347
21:00+12s3584100 1.3 1016171
15 april, thu
thu1500:00+11ssw1188100 0.1 101623
03:00+10ssw1189100 0.3 101616
06:00+9se1193100 0.4 101613
09:00+11ese2383100 0.6 1016308
12:00+15se34596 0.7 10151286
15:00+16se555189 1.3 10141488
18:00+13ese5774100 0.5 1014634
21:00+10e378999 0.5 1015248
16 april, fri
fri1600:00+10e379065 0.1 1014317
03:00+8ene369692 0.1 1014124
06:00+9ene369392 0.1 1014212
09:00+12ese35795 0.1 1014465
12:00+16ese56586 1.3 10141293
15:00+15se4661100 3.3 10151079
18:00+12se4687100 4.6 1016330
21:00+10ne2289100 7.5 101828
17 april, sat
sat1700:00+9ene3895100 1.5 1018330
03:00+10ne71488100 1.7 1019550
06:00+8ene71490100 0.1 1020590
09:00+9ene81484100 0.1 1022733
12:00+12ene91269100 0.0 10231045
15:00+14ene9115973 0.0 10241559
18:00+12ene812535 0.0 10251321
21:00+9ene714545 0.0 1028632